This is the latest recevied weather packets stored in our database for station/object KL4TQ. If no packets are shown the sender has not sent any weather packets the latest 10 day(s).
| Time | Temp. | Humidity | Pressure | Rain* | Wind** | Luminosity | Snow |
|---|---|---|---|---|---|---|---|
| 1777134668 | 2.78° C | 77% | 856 hPa | 0 mm | - | 121 W/m² | - |
| 1777134368 | 2.78° C | 77% | 856 hPa | 0 mm | - | 78 W/m² | - |
| 1777134069 | 3.33° C | 77% | 857 hPa | 0 mm | - | 81 W/m² | - |
| 1777133769 | 3.33° C | 75% | 857 hPa | 0 mm | - | 120 W/m² | - |
| 1777133468 | 3.33° C | 75% | 857 hPa | 0 mm | - | 256 W/m² | - |
| 1777133168 | 2.78° C | 76% | 857 hPa | 0 mm | - | 259 W/m² | - |
| 1777132868 | 2.78° C | 78% | 857 hPa | 0 mm | - | 209 W/m² | - |
| 1777132569 | 2.22° C | 80% | 857 hPa | 0 mm | - | 164 W/m² | - |
| 1777132268 | 2.78° C | 80% | 857 hPa | 0 mm | - | 110 W/m² | - |
| 1777131971 | 2.78° C | 79% | 857 hPa | 0 mm | - | 103 W/m² | - |
| 1777131668 | 2.78° C | 78% | 857 hPa | 0 mm | - | 95 W/m² | - |
| 1777131368 | 2.78° C | 79% | 857 hPa | 0 mm | - | 84 W/m² | - |
| 1777131068 | 2.78° C | 78% | 857 hPa | 0 mm | - | 53 W/m² | - |
| 1777130769 | 3.33° C | 78% | 857 hPa | 0 mm | - | 56 W/m² | - |
| 1777130470 | 3.33° C | 78% | 857 hPa | 0 mm | - | 70 W/m² | - |
| 1777130170 | 3.33° C | 79% | 857 hPa | 0 mm | - | 120 W/m² | - |
| 1777129869 | 3.33° C | 78% | 857 hPa | 0 mm | - | 104 W/m² | - |
| 1777129569 | 3.33° C | 78% | 857 hPa | 0 mm | - | 77 W/m² | - |
| 1777129269 | 3.33° C | 78% | 857 hPa | 0 mm | - | 71 W/m² | - |
| 1777128968 | 3.33° C | 78% | 857 hPa | 0 mm | - | 68 W/m² | - |
| 1777128668 | 3.33° C | 78% | 857 hPa | 0 mm | - | 48 W/m² | - |
| 1777128368 | 3.89° C | 77% | 857 hPa | 0 mm | - | 33 W/m² | - |
| 1777128069 | 3.89° C | 75% | 857 hPa | 0 mm | - | 24 W/m² | - |
| 1777127769 | 3.89° C | 74% | 857 hPa | 0 mm | - | 23 W/m² | - |
| 1777127468 | 3.89° C | 73% | 857 hPa | 0 mm | - | 19 W/m² | - |
* Rain latest hour (hover to see other rain measurements)
** Current wind speed in m/s (hover to see current wind gust speed)